Time,TemperatureF,DewpointF,PressureIn,WindDirection,WindDirectionDegrees,WindSpeedMPH,WindSpeedGustMPH,Humidity,HourlyPrecipIn,Conditions,Clouds,dailyrainin,SoftwareType,DateUTC
2013-04-03 00:06:00,33.6,14.0,30.12,West,271,4.0,-999.0,44,-99.99,,,0.00,weatherlink.com 1.10,2013-04-03 04:06:00,
2013-04-03 00:22:00,33.2,13.0,30.12,WNW,286,6.0,-999.0,43,-99.99,,,0.00,weatherlink.com 1.10,2013-04-03 04:22:00,
2013-04-03 00:37:00,32.9,12.0,30.12,West,277,4.0,-999.0,42,-99.99,,,0.00,weatherlink.com 1.10,2013-04-03 04:37:00,
2013-04-03 00:52:00,32.5,12.0,30.12,WNW,287,3.0,-999.0,43,-99.99,,,0.00,weatherlink.com 1.10,2013-04-03 04:52:00,
2013-04-03 01:12:00,32.3,11.0,30.13,WNW,283,4.0,-999.0,42,-99.99,,,0.00,weatherlink.com 1.10,2013-04-03 05:12:00,
2013-04-03 01:23:00,32.0,11.0,30.13,West,279,6.0,-999.0,42,-99.99,,,0.00,weatherlink.com 1.10,2013-04-03 05:23:00,
2013-04-03 01:38:00,31.4,12.0,30.13,West,279,2.0,-999.0,44,-99.99,,,0.00,weatherlink.com 1.10,2013-04-03 05:38:00,
2013-04-03 01:53:00,31.0,11.0,30.13,NW,307,2.0,-999.0,44,-99.99,,,0.00,weatherlink.com 1.10,2013-04-03 05:53:00,
2013-04-03 02:10:00,30.5,12.0,30.13,WNW,297,4.0,-999.0,46,-99.99,,,0.00,weatherlink.com 1.10,2013-04-03 06:10:00,
2013-04-03 02:25:00,29.5,12.0,30.12,WNW,288,0.0,-999.0,48,-99.99,,,0.00,weatherlink.com 1.10,2013-04-03 06:25:00,
2013-04-03 02:40:00,29.6,11.0,30.12,West,267,2.0,-999.0,47,-99.99,,,0.00,weatherlink.com 1.10,2013-04-03 06:40:00,
2013-04-03 02:55:00,29.2,12.0,30.12,West,267,1.0,-999.0,48,-99.99,,,0.00,weatherlink.com 1.10,2013-04-03 06:55:00,
2013-04-03 03:10:00,29.3,12.0,30.12,NW,323,3.0,-999.0,48,-99.99,,,0.00,weatherlink.com 1.10,2013-04-03 07:10:00,
2013-04-03 03:25:00,29.9,12.0,30.12,West,271,4.0,-999.0,48,-99.99,,,0.00,weatherlink.com 1.10,2013-04-03 07:25:00,
2013-04-03 03:40:00,29.8,12.0,30.12,WNW,289,6.0,-999.0,47,-99.99,,,0.00,weatherlink.com 1.10,2013-04-03 07:40:00,
2013-04-03 03:55:00,29.4,12.0,30.12,West,278,1.0,-999.0,49,-99.99,,,0.00,weatherlink.com 1.10,2013-04-03 07:55:00,
2013-04-03 04:12:00,28.7,13.0,30.12,NW,309,1.0,-999.0,51,-99.99,,,0.00,weatherlink.com 1.10,2013-04-03 08:12:00,
2013-04-03 04:26:00,29.5,13.0,30.12,WNW,296,2.0,-999.0,50,-99.99,,,0.00,weatherlink.com 1.10,2013-04-03 08:26:00,
2013-04-03 04:41:00,29.9,13.0,30.13,WNW,289,6.0,-999.0,49,-99.99,,,0.00,weatherlink.com 1.10,2013-04-03 08:41:00,
2013-04-03 04:57:00,29.5,13.0,30.13,West,271,4.0,-999.0,50,-99.99,,,0.00,weatherlink.com 1.10,2013-04-03 08:57:00,
2013-04-03 05:12:00,29.3,13.0,30.14,WNW,296,4.0,-999.0,51,-99.99,,,0.00,weatherlink.com 1.10,2013-04-03 09:12:00,
2013-04-03 05:28:00,29.7,13.0,30.14,West,261,5.0,-999.0,50,-99.99,,,0.00,weatherlink.com 1.10,2013-04-03 09:28:00,
2013-04-03 05:42:00,29.9,13.0,30.15,WNW,300,4.0,-999.0,50,-99.99,,,0.00,weatherlink.com 1.10,2013-04-03 09:42:00,
2013-04-03 05:58:00,29.7,13.0,30.15,WSW,258,4.0,-999.0,51,-99.99,,,0.00,weatherlink.com 1.10,2013-04-03 09:58:00,
2013-04-03 06:13:00,29.8,14.0,30.15,West,277,4.0,-999.0,51,-99.99,,,0.00,weatherlink.com 1.10,2013-04-03 10:13:00,
2013-04-03 06:28:00,29.7,13.0,30.16,West,269,3.0,-999.0,51,-99.99,,,0.00,weatherlink.com 1.10,2013-04-03 10:28:00,
2013-04-03 06:45:00,29.3,14.0,30.16,WNW,284,7.0,-999.0,53,-99.99,,,0.00,weatherlink.com 1.10,2013-04-03 10:45:00,
2013-04-03 07:00:00,29.4,14.0,30.17,WNW,284,5.0,-999.0,54,-99.99,,,0.00,weatherlink.com 1.10,2013-04-03 11:00:00,
2013-04-03 07:15:00,29.6,15.0,30.17,West,276,3.0,-999.0,54,-99.99,,,0.00,weatherlink.com 1.10,2013-04-03 11:15:00,
2013-04-03 07:30:00,29.7,15.0,30.18,WNW,284,6.0,-999.0,54,-99.99,,,0.00,weatherlink.com 1.10,2013-04-03 11:30:00,
2013-04-03 07:45:00,29.9,15.0,30.18,WSW,257,5.0,-999.0,54,-99.99,,,0.00,weatherlink.com 1.10,2013-04-03 11:45:00,
2013-04-03 08:00:00,30.3,15.0,30.19,NW,319,4.0,-999.0,54,-99.99,,,0.00,weatherlink.com 1.10,2013-04-03 12:00:00,
2013-04-03 08:15:00,30.7,16.0,30.19,WNW,296,3.0,-999.0,54,-99.99,,,0.00,weatherlink.com 1.10,2013-04-03 12:15:00,
2013-04-03 08:46:00,31.5,16.0,30.20,West,267,3.0,-999.0,53,-99.99,,,0.00,weatherlink.com 1.10,2013-04-03 12:46:00,
2013-04-03 09:16:00,32.0,17.0,30.19,West,276,4.0,-999.0,54,-99.99,,,0.00,weatherlink.com 1.10,2013-04-03 13:16:00,
2013-04-03 09:32:00,32.1,17.0,30.19,WSW,246,7.0,-999.0,54,-99.99,,,0.00,weatherlink.com 1.10,2013-04-03 13:32:00,
2013-04-03 09:47:00,32.6,17.0,30.18,West,270,4.0,-999.0,52,-99.99,,,0.00,weatherlink.com 1.10,2013-04-03 13:47:00,
2013-04-03 10:02:00,33.5,17.0,30.18,NW,313,3.0,-999.0,51,-99.99,,,0.00,weatherlink.com 1.10,2013-04-03 14:02:00,
2013-04-03 10:17:00,33.7,16.0,30.18,NW,324,6.0,-999.0,49,-99.99,,,0.00,weatherlink.com 1.10,2013-04-03 14:17:00,
2013-04-03 10:33:00,34.1,17.0,30.19,NW,309,7.0,-999.0,49,-99.99,,,0.00,weatherlink.com 1.10,2013-04-03 14:33:00,
2013-04-03 10:48:00,34.8,16.0,30.19,West,279,6.0,-999.0,47,-99.99,,,0.00,weatherlink.com 1.10,2013-04-03 14:48:00,
2013-04-03 11:03:00,35.6,16.0,30.19,NW,317,5.0,-999.0,45,-99.99,,,0.00,weatherlink.com 1.10,2013-04-03 15:03:00,
2013-04-03 11:18:00,35.5,15.0,30.20,WSW,258,9.0,-999.0,43,-99.99,,,0.00,weatherlink.com 1.10,2013-04-03 15:18:00,
2013-04-03 11:35:00,35.1,16.0,30.21,NW,304,7.0,-999.0,45,-99.99,,,0.00,weatherlink.com 1.10,2013-04-03 15:35:00,
2013-04-03 11:53:00,36.9,15.0,30.20,NNW,329,8.0,-999.0,41,-99.99,,,0.00,weatherlink.com 1.10,2013-04-03 15:53:00,
2013-04-03 12:05:00,37.0,16.0,30.20,WNW,301,5.0,-999.0,43,-99.99,,,0.00,weatherlink.com 1.10,2013-04-03 16:05:00,
2013-04-03 12:20:00,36.7,15.0,30.20,WNW,286,11.0,-999.0,41,-99.99,,,0.00,weatherlink.com 1.10,2013-04-03 16:20:00,
2013-04-03 12:36:00,37.2,15.0,30.19,WNW,286,5.0,-999.0,41,-99.99,,,0.00,weatherlink.com 1.10,2013-04-03 16:36:00,
2013-04-03 12:50:00,37.3,15.0,30.19,West,259,4.0,-999.0,40,-99.99,,,0.00,weatherlink.com 1.10,2013-04-03 16:50:00,
2013-04-03 13:06:00,37.5,15.0,30.18,West,281,8.0,-999.0,40,-99.99,,,0.00,weatherlink.com 1.10,2013-04-03 17:06:00,
2013-04-03 13:20:00,39.4,16.0,30.17,WSW,254,6.0,-999.0,39,-99.99,,,0.00,weatherlink.com 1.10,2013-04-03 17:20:00,
2013-04-03 13:36:00,38.9,16.0,30.17,WNW,302,10.0,-999.0,40,-99.99,,,0.00,weatherlink.com 1.10,2013-04-03 17:36:00,
2013-04-03 13:52:00,39.2,15.0,30.18,West,269,10.0,-999.0,37,-99.99,,,0.00,weatherlink.com 1.10,2013-04-03 17:52:00,
2013-04-03 14:06:00,40.3,16.0,30.17,West,281,9.0,-999.0,38,-99.99,,,0.00,weatherlink.com 1.10,2013-04-03 18:06:00,
2013-04-03 14:21:00,40.7,15.0,30.16,West,280,11.0,-999.0,36,-99.99,,,0.00,weatherlink.com 1.10,2013-04-03 18:21:00,
2013-04-03 14:52:00,40.3,15.0,30.16,West,271,6.0,-999.0,35,-99.99,,,0.00,weatherlink.com 1.10,2013-04-03 18:52:00,
2013-04-03 15:07:00,40.8,14.0,30.16,West,273,6.0,-999.0,34,-99.99,,,0.00,weatherlink.com 1.10,2013-04-03 19:07:00,
2013-04-03 15:54:00,41.1,13.0,30.16,West,263,7.0,-999.0,32,-99.99,,,0.00,weatherlink.com 1.10,2013-04-03 19:54:00,
2013-04-03 16:09:00,41.6,13.0,30.15,WNW,291,8.0,-999.0,31,-99.99,,,0.00,weatherlink.com 1.10,2013-04-03 20:09:00,
2013-04-03 16:24:00,41.9,13.0,30.16,West,280,9.0,-999.0,31,-99.99,,,0.00,weatherlink.com 1.10,2013-04-03 20:24:00,
2013-04-03 16:41:00,40.6,12.0,30.17,NNW,331,7.0,-999.0,31,-99.99,,,0.00,weatherlink.com 1.10,2013-04-03 20:41:00,
2013-04-03 16:55:00,40.9,12.0,30.16,WNW,296,3.0,-999.0,31,-99.99,,,0.00,weatherlink.com 1.10,2013-04-03 20:55:00,
2013-04-03 17:12:00,40.9,12.0,30.17,WNW,290,11.0,-999.0,30,-99.99,,,0.00,weatherlink.com 1.10,2013-04-03 21:12:00,
2013-04-03 17:25:00,40.7,10.0,30.18,NW,315,12.0,-999.0,28,-99.99,,,0.00,weatherlink.com 1.10,2013-04-03 21:25:00,
2013-04-03 17:40:00,40.8,11.0,30.19,NNW,330,4.0,-999.0,29,-99.99,,,0.00,weatherlink.com 1.10,2013-04-03 21:40:00,
2013-04-03 17:55:00,41.1,12.0,30.20,WSW,255,8.0,-999.0,30,-99.99,,,0.00,weatherlink.com 1.10,2013-04-03 21:55:00,
2013-04-03 18:10:00,41.1,12.0,30.21,WNW,297,10.0,-999.0,30,-99.99,,,0.00,weatherlink.com 1.10,2013-04-03 22:10:00,
2013-04-03 18:41:00,39.8,10.0,30.23,WNW,290,7.0,-999.0,29,-99.99,,,0.00,weatherlink.com 1.10,2013-04-03 22:41:00,
2013-04-03 18:56:00,39.2,10.0,30.24,WNW,282,6.0,-999.0,30,-99.99,,,0.00,weatherlink.com 1.10,2013-04-03 22:56:00,
2013-04-03 19:27:00,38.2,9.0,30.26,West,277,7.0,-999.0,30,-99.99,,,0.00,weatherlink.com 1.10,2013-04-03 23:27:00,
2013-04-03 19:42:00,37.7,9.0,30.26,NNW,333,10.0,-999.0,31,-99.99,,,0.00,weatherlink.com 1.10,2013-04-03 23:42:00,
2013-04-03 19:57:00,37.3,10.0,30.27,West,272,2.0,-999.0,32,-99.99,,,0.00,weatherlink.com 1.10,2013-04-03 23:57:00,
2013-04-03 20:43:00,36.1,10.0,30.29,SW,227,1.0,-999.0,34,-99.99,,,0.00,weatherlink.com 1.10,2013-04-04 00:43:00,
2013-04-03 21:15:00,35.5,11.0,30.30,NW,309,11.0,-999.0,36,-99.99,,,0.00,weatherlink.com 1.10,2013-04-04 01:15:00,
2013-04-03 21:30:00,35.1,11.0,30.30,WNW,284,5.0,-999.0,37,-99.99,,,0.00,weatherlink.com 1.10,2013-04-04 01:30:00,
2013-04-03 21:45:00,34.8,11.0,30.30,WNW,289,9.0,-999.0,37,-99.99,,,0.00,weatherlink.com 1.10,2013-04-04 01:45:00,
2013-04-03 22:00:00,34.5,11.0,30.31,WNW,282,6.0,-999.0,37,-99.99,,,0.00,weatherlink.com 1.10,2013-04-04 02:00:00,
2013-04-03 22:15:00,34.2,11.0,30.31,West,272,4.0,-999.0,38,-99.99,,,0.00,weatherlink.com 1.10,2013-04-04 02:15:00,
2013-04-03 22:31:00,33.7,11.0,30.32,NNW,333,2.0,-999.0,39,-99.99,,,0.00,weatherlink.com 1.10,2013-04-04 02:31:00,
2013-04-03 22:45:00,33.4,11.0,30.32,NW,308,3.0,-999.0,40,-99.99,,,0.00,weatherlink.com 1.10,2013-04-04 02:45:00,
2013-04-03 23:00:00,33.2,11.0,30.33,West,278,4.0,-999.0,40,-99.99,,,0.00,weatherlink.com 1.10,2013-04-04 03:00:00,
2013-04-03 23:16:00,32.9,11.0,30.32,WNW,284,4.0,-999.0,41,-99.99,,,0.00,weatherlink.com 1.10,2013-04-04 03:16:00,
2013-04-03 23:31:00,32.7,11.0,30.33,North,350,5.0,-999.0,41,-99.99,,,0.00,weatherlink.com 1.10,2013-04-04 03:31:00,